Home   Weather   Canada   Toronto   Past weeks
Flag for Canada

Past Weather in Toronto, Ontario, Canada — December 2016

Currently: 77 °F. More clouds than sun. (Weather station: Toronto Pearson International Airport, Canada). See more current weather

December 2016 Weather in Toronto — Graph

°F

High & Low Weather Summary for December 2016

 TemperatureHumidityPressure
High50 °F (Dec 26, 7:00 pm)100% (Dec 6, 9:00 pm)30.73 "Hg (Dec 6, 9:00 pm)
Low9 °F (Dec 15, 8:00 am)45% (Dec 3, 2:00 pm)29.45 "Hg (Dec 1, 12:00 am)
Average30 °F75%30.03 "Hg
* Reported Dec 1 12:00 am — Dec 31 11:00 pm, Toronto. Weather by CustomWeather, © 2021

Note: Actual official high and low records may vary slightly from our data, if they occured in-between our weather recording intervals... More about our weather records

Toronto Weather History for December 1, 2016

Scroll right to see more
 ConditionsComfort  
Time TempWeatherWind HumidityBarometerVisibility
12:00 am
Thu, Dec 1
46 °FLight rain. Overcast.9 mph93%29.45 "Hg15 mi
1:00 am46 °FPassing clouds.12 mph87%29.47 "Hg15 mi
2:00 am43 °FPassing clouds.20 mph76%29.50 "Hg15 mi
3:00 am41 °FPassing clouds.18 mph76%29.54 "Hg15 mi
4:00 am39 °FPassing clouds.13 mph81%29.55 "Hg15 mi
5:00 am41 °FPassing clouds.22 mph76%29.57 "Hg15 mi
6:00 am41 °FSprinkles. Partly cloudy.15 mph81%29.59 "Hg15 mi
7:00 am41 °FOvercast.16 mph70%29.59 "Hg15 mi
8:00 am39 °FOvercast.15 mph75%29.60 "Hg15 mi
9:00 am39 °FPartly sunny.18 mph81%29.61 "Hg15 mi
10:00 am39 °FMostly cloudy.17 mph81%29.63 "Hg15 mi
11:00 am41 °FPartly sunny.20 mph70%29.62 "Hg15 mi
12:00 pm43 °FPartly sunny.24 mph66%29.62 "Hg15 mi
1:00 pm41 °FOvercast.21 mph70%29.63 "Hg15 mi
2:00 pm43 °FPartly sunny.17 mph66%29.64 "Hg15 mi
3:00 pm41 °FPartly sunny.20 mph70%29.65 "Hg15 mi
4:00 pm41 °FOvercast.17 mph70%29.68 "Hg15 mi
5:00 pm41 °FPassing clouds.14 mph70%29.69 "Hg15 mi
6:00 pm41 °FMostly cloudy.16 mph70%29.71 "Hg15 mi
7:00 pm41 °FPartly cloudy.14 mph70%29.71 "Hg15 mi
8:00 pm41 °FPassing clouds.16 mph76%29.72 "Hg15 mi
9:00 pm41 °FPassing clouds.15 mph76%29.72 "Hg15 mi
10:00 pm41 °FPassing clouds.17 mph76%29.72 "Hg15 mi
11:00 pm39 °FPassing clouds.21 mph81%29.72 "Hg15 mi
Weather by CustomWeather, © 2021

See weather overview